TimeEDT,TemperatureF,Dew PointF,Humidity,Sea Level PressureIn,VisibilityMPH,Wind Direction,Wind SpeedMPH,Gust SpeedMPH,PrecipitationIn,Events,Conditions,WindDirDegrees,DateUTC
12:53 AM,60.1,46.0,60,29.68,10.0,SSW,6.9,-,N/A,,Clear,200,2013-10-01 04:53:00
1:53 AM,59.0,46.0,62,29.67,10.0,South,3.5,-,0.00,,Scattered Clouds,190,2013-10-01 05:53:00
2:53 AM,60.1,46.0,60,29.66,10.0,South,4.6,-,N/A,,Clear,180,2013-10-01 06:53:00
3:53 AM,57.9,46.9,67,29.65,10.0,SSE,4.6,-,N/A,,Clear,160,2013-10-01 07:53:00
4:53 AM,57.9,46.9,67,29.64,10.0,SSE,4.6,-,N/A,,Clear,150,2013-10-01 08:53:00
5:53 AM,57.9,46.9,67,29.63,10.0,Variable,6.9,-,N/A,,Clear,0,2013-10-01 09:53:00
6:53 AM,57.0,48.0,72,29.62,10.0,South,4.6,-,N/A,,Clear,170,2013-10-01 10:53:00
7:53 AM,55.0,48.0,77,29.60,10.0,SSE,4.6,-,N/A,,Clear,160,2013-10-01 11:53:00
8:53 AM,57.9,48.9,72,29.61,10.0,SW,5.8,-,N/A,,Scattered Clouds,220,2013-10-01 12:53:00
9:53 AM,62.1,51.1,67,29.60,10.0,SSW,8.1,-,0.00,,Partly Cloudy,210,2013-10-01 13:53:00
10:53 AM,64.9,52.0,63,29.59,10.0,SW,6.9,-,N/A,,Clear,230,2013-10-01 14:53:00
11:53 AM,69.1,52.0,54,29.59,10.0,WSW,17.3,32.2,N/A,,Clear,250,2013-10-01 15:53:00
12:53 PM,69.1,52.0,54,29.62,10.0,West,32.2,41.4,N/A,,Clear,270,2013-10-01 16:53:00
1:53 PM,66.9,52.0,59,29.65,10.0,West,24.2,35.7,N/A,,Clear,280,2013-10-01 17:53:00
2:53 PM,69.1,46.9,45,29.66,10.0,West,25.3,34.5,N/A,,Clear,270,2013-10-01 18:53:00
3:53 PM,70.0,41.0,35,29.68,10.0,West,20.7,31.1,N/A,,Clear,260,2013-10-01 19:53:00
4:53 PM,69.1,37.0,31,29.68,10.0,West,24.2,33.4,N/A,,Clear,260,2013-10-01 20:53:00
5:53 PM,69.1,35.1,29,29.70,10.0,West,23.0,31.1,N/A,,Clear,260,2013-10-01 21:53:00
6:53 PM,66.9,35.1,31,29.71,10.0,West,18.4,27.6,N/A,,Clear,260,2013-10-01 22:53:00
7:53 PM,64.0,35.1,34,29.73,10.0,West,17.3,27.6,N/A,,Clear,260,2013-10-01 23:53:00
8:53 PM,62.1,39.0,43,29.76,10.0,West,16.1,-,N/A,,Clear,270,2013-10-02 00:53:00
9:53 PM,63.0,37.9,40,29.78,10.0,West,19.6,27.6,N/A,,Clear,270,2013-10-02 01:53:00
10:53 PM,62.1,39.0,43,29.79,10.0,West,21.9,28.8,N/A,,Clear,270,2013-10-02 02:53:00
11:53 PM,61.0,37.9,42,29.81,10.0,West,17.3,26.5,N/A,,Clear,270,2013-10-02 03:53:00